X-SAT

Last updated on Sat Dec 13 2025 00:03:35 GMT+0000 (Coordinated Universal Time)

1 37389U 11015C 25346.19373830 .00000431 00000+0 20087-3 0 9999 2 37389 98.3313 327.3608 0014107 167.3607 192.7930 14.25129560761045
UTC large
Height (km)
Speed (km/s)
/
Latitude / Longitude
Inclination (degrees)
Orbital Period (minutes)
Azimuth
Elevation
Range (km)
Doppler Factor

Next 0 passes for location: London (51.5072 / 0.1276)

Sorry there are no passes over London.